[[{"header":{"parameterUnit":"m.s-1","parameterCategory":1,"la1":30.2991,"la2":30.254,"lo1":-89.0895,"lo2":-89.0444,"dy":0.0017,"dx":0.0017,"nx":28,"ny":28,"refTime":"2024-04-14T09:00:00:Z","depth":0,"parameterNumber":2,"parameterNumberName":"U-component_of_WINDS"},"data":[0,0,0,0,0,0,0,0,0,0,0,0,0,0,0,0,0,0,0,0,0,0,0,0,0,0,0,0,0,0,0,0,0,0,0,0,0,0,0,0,0,0,0,0,0,0,0,0,0,0,0,0,0,0,0,0,0,0,-1.3901,-1.3899,0,-1.3752,-1.375,-1.3749,-1.3648,-1.3647,-1.3647,-1.3646,-1.3494,-1.349,-1.3487,0,0,0,0,0,0,0,0,0,0,0,0,0,-1.4099,-1.4096,-1.3901,-1.3899,-1.3897,-1.3752,-1.375,-1.3748,-1.3648,-1.3647,-1.3647,-1.3646,-1.3495,-1.3491,-1.3487,0,0,0,0,0,0,0,0,0,0,0,0,0,-1.3988,-1.4095,-1.3901,-1.383,-1.3822,-1.3753,-1.375,-1.3748,-1.3648,-1.3647,-1.3646,-1.3645,-1.3496,-1.3491,-1.3486,-1.3476,0,0,-1.347,-1.3468,0,0,0,0,0,0,0,0,-1.3994,-1.3981,-1.3842,-1.3835,-1.3826,-1.3718,-1.3764,-1.3657,-1.3649,-1.3714,-1.3646,-1.3645,-1.3569,-1.3558,-1.3532,-1.3469,-1.3462,-1.347,-1.3467,-1.3465,-1.3463,0,0,0,0,0,0,0,-1.4002,-1.3987,-1.3842,-1.384,-1.383,-1.3805,-1.3789,-1.3743,-1.3649,-1.3709,-1.3701,-1.3685,-1.3564,-1.3537,-1.3528,-1.346,-1.347,-1.3466,-1.3462,-1.346,-1.3381,-1.3382,0,0,0,0,0,0,-1.4021,-1.3994,-1.3847,-1.3837,-1.3909,-1.3803,-1.3784,-1.3753,-1.365,-1.3633,-1.3686,-1.3681,-1.3547,-1.3534,-1.3522,-1.3503,-1.3465,-1.346,-1.3457,-1.338,-1.3381,-1.3382,0,0,0,0,0,0,-1.4026,-1.4009,-1.3853,-1.3913,-1.3892,-1.38,-1.3767,-1.3751,-1.3724,-1.3632,-1.3615,-1.3675,-1.3545,-1.3529,-1.3488,-1.3496,-1.3458,-1.3453,-1.3379,-1.338,-1.3382,-1.3465,0,0,0,0,0,0,-1.4032,-1.4011,-1.4006,-1.3914,-1.3889,-1.3821,-1.3768,-1.3749,-1.3715,-1.3707,-1.3618,-1.3602,-1.3543,-1.3496,-1.3483,-1.3489,-1.3449,-1.3378,-1.3379,-1.3381,-1.3462,-1.347,-1.3476,0,0,0,0,0,-1.4039,-1.4036,-1.4007,-1.3989,-1.3881,-1.3822,-1.3807,-1.3739,-1.3717,-1.3711,-1.3652,-1.3605,-1.3498,-1.3493,-1.3477,-1.3481,-1.3377,-1.3379,-1.3381,-1.3458,-1.3468,-1.3476,0,0,0,0,0,0,-1.4131,-1.4022,-1.3989,-1.3955,-1.3899,-1.3805,-1.3796,-1.3752,-1.3701,-1.3695,-1.3613,-1.3594,-1.3561,-1.3517,-1.3513,-1.3466,-1.3432,-1.3431,-1.3496,-1.3504,-1.3512,-1.3523,-1.3445,0,0,0,0,0,-1.4147,-1.4109,-1.4016,-1.3995,-1.3969,-1.3888,-1.3859,-1.3812,-1.375,-1.3725,-1.3664,-1.3605,-1.3558,-1.3529,-1.3481,-1.3455,-1.3434,-1.345,-1.3458,-1.3465,-1.3464,-1.3448,-1.3454,-1.3389,-1.3389,-1.3389,0,0,-1.418,-1.4116,-1.4097,-1.4012,-1.3962,-1.3924,-1.3868,-1.383,-1.3801,-1.3719,-1.3677,-1.363,-1.3559,-1.3526,-1.3508,-1.3488,-1.3478,-1.3467,-1.3473,-1.3469,-1.345,-1.3457,-1.3462,-1.339,-1.339,-1.339,0,0,-1.4221,-1.4169,-1.4146,-1.4098,-1.4024,-1.397,-1.3965,-1.3878,-1.3844,-1.38,-1.3738,-1.3703,-1.3624,-1.3576,-1.3542,-1.3566,-1.3521,-1.3553,-1.3591,-1.3576,-1.3581,-1.3585,-1.3593,-1.3597,-1.3553,-1.3553,-1.3553,0,-1.4271,-1.4211,-1.414,-1.4105,-1.407,-1.3995,-1.3972,-1.3929,-1.3843,-1.382,-1.38,-1.3699,-1.3646,-1.3601,-1.3607,-1.3582,-1.3573,-1.3562,-1.3586,-1.3589,-1.3592,-1.3599,-1.3603,-1.3558,-1.3557,-1.3557,-1.3556,0,-1.4277,-1.4237,-1.4227,-1.4146,-1.411,-1.4081,-1.4005,-1.3977,-1.3934,-1.3882,-1.3839,-1.3773,-1.3711,-1.3697,-1.3653,-1.3645,-1.3635,-1.3602,-1.3565,-1.3604,-1.3609,-1.3611,-1.3564,-1.3562,-1.3561,-1.356,0,0,-1.437,-1.4251,-1.4248,-1.4211,-1.4125,-1.4092,-1.406,-1.3999,-1.3976,-1.3921,-1.3892,-1.3827,-1.3796,-1.3757,-1.3708,-1.3695,-1.3718,-1.3662,-1.3659,-1.3674,-1.3705,-1.373,-1.3734,-1.3688,-1.3688,-1.3689,-1.371,0,-1.4397,-1.4335,-1.4271,-1.4232,-1.4194,-1.4123,-1.4096,-1.404,-1.3992,-1.3952,-1.3899,-1.3854,-1.3816,-1.3792,-1.3776,-1.3719,-1.3723,-1.3716,-1.366,-1.3659,-1.3679,-1.3737,-1.3763,-1.3786,-1.3712,-1.3712,-1.3712,0,-1.442,-1.4367,-1.4325,-1.4243,-1.4224,-1.4201,-1.414,-1.4103,-1.4039,-1.4005,-1.3962,-1.391,-1.3873,-1.3843,-1.3791,-1.3788,-1.3761,-1.373,-1.3729,-1.372,-1.3687,-1.3729,-1.3792,-1.3796,-1.3715,-1.3715,-1.3715,0,-1.4491,-1.441,-1.4374,-1.4345,-1.4248,-1.4233,-1.4192,-1.4126,-1.4094,-1.4041,-1.4019,-1.3963,-1.3932,-1.389,-1.3824,-1.3808,-1.378,-1.3743,-1.375,-1.3752,-1.3746,-1.3747,-1.3806,-1.3731,-1.3731,-1.3731,-1.3731,0,-1.4527,-1.4504,-1.4405,-1.4383,-1.4355,-1.4281,-1.4256,-1.4209,-1.4152,-1.4119,-1.4055,-1.4026,-1.3942,-1.3903,-1.3852,-1.3817,-1.3804,-1.3775,-1.3761,-1.378,-1.3784,-1.3761,-1.3757,-1.3732,-1.3732,-1.3731,-1.3731,0,-1.4602,-1.4534,-1.449,-1.4403,-1.4381,-1.4364,-1.4289,-1.4265,-1.4214,-1.4174,-1.416,-1.4079,-1.403,-1.3961,-1.3891,-1.3857,-1.3829,-1.3808,-1.3851,-1.3842,-1.3853,-1.3853,-1.3898,-1.39,-1.3826,-1.3826,-1.3827,0,-1.4629,-1.4609,-1.452,-1.4494,-1.4455,-1.4414,-1.4381,-1.4308,-1.4276,-1.4202,-1.4187,-1.4134,-1.4086,-1.4012,-1.3947,-1.3893,-1.387,-1.3889,-1.3861,-1.3881,-1.3869,-1.3871,-1.3868,-1.3896,-1.3897,-1.3898,-1.3899,0,-1.4684,-1.4652,-1.4606,-1.455,-1.4512,-1.4464,-1.4413,-1.4395,-1.4312,-1.4279,-1.4228,-1.4192,-1.4121,-1.4069,-1.4006,-1.3964,-1.3918,-1.3908,-1.3907,-1.3925,-1.3951,-1.3936,-1.3868,-1.3907,-1.3906,-1.3906,-1.3905,-1.3905,-1.4735,-1.4714,-1.4648,-1.46,-1.4554,-1.4508,-1.4482,-1.4427,-1.4384,-1.432,-1.428,-1.4232,-1.4168,-1.408,-1.404,-1.4001,-1.3982,-1.398,-1.3979,-1.398,-1.3986,-1.3958,-1.399,-1.3989,-1.3989,-1.3989,-1.3988,0,-1.4786,-1.4741,-1.4697,-1.4628,-1.459,-1.455,-1.4492,-1.4463,-1.4421,-1.4366,-1.4321,-1.4264,-1.4213,-1.4145,-1.4089,-1.4071,-1.4048,-1.4058,-1.4058,-1.4049,-1.4007,-1.4013,-1.4078,-1.4078,-1.4078,-1.4078,-1.4078,-1.4078,-1.4808,-1.4772,-1.4732,-1.4672,-1.4627,-1.4579,-1.4549,-1.4506,-1.4462,-1.44,-1.4358,-1.4314,-1.4253,-1.4193,-1.4144,-1.4126,-1.4108,-1.4125,-1.41,-1.4061,-1.4052,-1.4045,-1.405,-1.4122,-1.4122,-1.4145,-1.4145,-1.4146]},{"header":{"parameterUnit":"m.s-1","parameterCategory":1,"la1":30.2991,"la2":30.254,"lo1":-89.0895,"lo2":-89.0444,"dy":0.0017,"dx":0.0017,"nx":28,"ny":28,"refTime":"2024-04-14T09:00:00:Z","depth":0,"parameterNumber":3,"parameterNumberName":"V-component_of_WINDS"},"data":[0,0,0,0,0,0,0,0,0,0,0,0,0,0,0,0,0,0,0,0,0,0,0,0,0,0,0,0,0,0,0,0,0,0,0,0,0,0,0,0,0,0,0,0,0,0,0,0,0,0,0,0,0,0,0,0,0,0,3.0418,3.0418,0,3.0382,3.0382,3.0381,3.0353,3.0353,3.0353,3.0352,3.0313,3.0312,3.0312,0,0,0,0,0,0,0,0,0,0,0,0,0,3.046,3.0459,3.0418,3.0418,3.0417,3.0382,3.0382,3.0381,3.0353,3.0353,3.0353,3.0352,3.0314,3.0313,3.0312,0,0,0,0,0,0,0,0,0,0,0,0,0,3.0435,3.0459,3.0418,3.0399,3.0397,3.0382,3.0382,3.0381,3.0353,3.0353,3.0353,3.0352,3.0314,3.0313,3.0311,3.0312,0,0,3.0308,3.0307,0,0,0,0,0,0,0,0,3.0436,3.0433,3.0402,3.04,3.0398,3.0372,3.0382,3.0358,3.0353,3.037,3.0352,3.0352,3.0333,3.033,3.0324,3.031,3.0308,3.0308,3.0307,3.0306,3.0306,0,0,0,0,0,0,0,3.0438,3.0435,3.0404,3.0402,3.0399,3.0392,3.0387,3.0377,3.0354,3.0368,3.0366,3.0363,3.0332,3.0325,3.0323,3.0308,3.0308,3.0307,3.0306,3.0305,3.0292,3.0292,0,0,0,0,0,0,3.0443,3.0436,3.0405,3.0403,3.0417,3.0391,3.0387,3.0381,3.0354,3.035,3.0363,3.0361,3.0328,3.0324,3.0322,3.032,3.0306,3.0305,3.0305,3.0292,3.0292,3.0293,0,0,0,0,0,0,3.0444,3.0441,3.0406,3.0419,3.0414,3.0391,3.0384,3.038,3.0374,3.035,3.0345,3.0361,3.0327,3.0323,3.0315,3.0319,3.0305,3.0304,3.0291,3.0292,3.0292,3.0318,0,0,0,0,0,0,3.0445,3.0441,3.0442,3.0419,3.0413,3.0401,3.0385,3.038,3.0372,3.037,3.0347,3.0343,3.0327,3.0317,3.0314,3.0317,3.0303,3.0291,3.0292,3.0292,3.0317,3.032,3.0322,0,0,0,0,0,3.0447,3.045,3.0442,3.0438,3.0414,3.0401,3.0398,3.038,3.0373,3.0373,3.0357,3.0343,3.0319,3.0316,3.0312,3.0315,3.0291,3.0291,3.0292,3.0316,3.0319,3.0322,0,0,0,0,0,0,3.0473,3.0447,3.0437,3.0433,3.042,3.0397,3.0396,3.0384,3.0372,3.037,3.0347,3.0342,3.0336,3.0325,3.0322,3.0314,3.0303,3.0303,3.0322,3.0325,3.0328,3.0331,3.0302,0,0,0,0,0,3.0478,3.0471,3.0448,3.0447,3.044,3.042,3.0413,3.0401,3.0386,3.038,3.0363,3.0349,3.0337,3.033,3.0319,3.0315,3.0309,3.0315,3.0318,3.032,3.032,3.0317,3.032,3.0295,3.0295,3.0295,0,0,3.0489,3.0474,3.047,3.0451,3.044,3.0432,3.0415,3.0408,3.0402,3.0378,3.037,3.0357,3.0339,3.0333,3.0329,3.0323,3.0326,3.0321,3.0323,3.0322,3.0318,3.0321,3.0323,3.0296,3.0296,3.0296,0,0,3.0505,3.0493,3.049,3.0479,3.0461,3.0447,3.0447,3.0425,3.0416,3.0407,3.039,3.0381,3.0363,3.035,3.0342,3.0353,3.034,3.0349,3.0363,3.036,3.0362,3.0363,3.0368,3.0369,3.035,3.035,3.035,0,3.052,3.0509,3.049,3.0484,3.0476,3.0455,3.0452,3.0441,3.0421,3.0415,3.0409,3.0385,3.0371,3.0362,3.0365,3.0358,3.0356,3.0352,3.0363,3.0365,3.0366,3.0369,3.0371,3.0351,3.0351,3.0351,3.0351,0,3.0529,3.0521,3.0521,3.0502,3.0494,3.049,3.047,3.0463,3.0451,3.0438,3.0429,3.0411,3.0396,3.0393,3.038,3.0382,3.0378,3.0368,3.0356,3.037,3.0373,3.0374,3.0353,3.0353,3.0352,3.0352,0,0,3.056,3.0531,3.0532,3.0523,3.0502,3.0495,3.0489,3.0475,3.047,3.0456,3.0451,3.0435,3.0425,3.0415,3.0401,3.0399,3.0409,3.0389,3.0388,3.0393,3.0409,3.0418,3.042,3.04,3.04,3.04,3.0411,0,3.0573,3.0563,3.0545,3.054,3.0533,3.0512,3.0507,3.0493,3.048,3.0471,3.0456,3.0446,3.0434,3.0428,3.0424,3.0409,3.0412,3.0407,3.0394,3.0394,3.04,3.0421,3.043,3.0441,3.0412,3.0412,3.0412,0,3.0587,3.0575,3.0569,3.0549,3.0545,3.0541,3.0526,3.0518,3.0502,3.0492,3.0481,3.0466,3.0458,3.0447,3.0436,3.0433,3.0426,3.0417,3.0417,3.0416,3.0404,3.0421,3.0444,3.0446,3.0414,3.0414,3.0414,0,3.0611,3.0594,3.0588,3.0581,3.0557,3.0554,3.0544,3.0527,3.0519,3.0506,3.0501,3.0487,3.0479,3.0468,3.0449,3.0443,3.0439,3.0427,3.0431,3.0432,3.0432,3.0432,3.0455,3.0427,3.0427,3.0427,3.0427,0,3.0628,3.0625,3.0599,3.0595,3.0591,3.0571,3.0568,3.0555,3.054,3.0533,3.0514,3.0508,3.0484,3.0474,3.0459,3.0452,3.0448,3.044,3.0436,3.0442,3.0443,3.0438,3.0437,3.0427,3.0427,3.0427,3.0427,0,3.0654,3.0637,3.0629,3.0607,3.0601,3.0599,3.058,3.0575,3.0561,3.0553,3.055,3.0527,3.0515,3.0495,3.0477,3.0467,3.0463,3.0456,3.0469,3.0466,3.0472,3.0472,3.0493,3.0495,3.0465,3.0465,3.0465,0,3.0666,3.0664,3.0642,3.0636,3.0627,3.0618,3.0611,3.059,3.0583,3.0564,3.0561,3.0548,3.0536,3.0518,3.05,3.0486,3.0479,3.0487,3.0476,3.0482,3.0479,3.048,3.048,3.0489,3.049,3.049,3.0491,0,3.069,3.0681,3.0671,3.0658,3.065,3.0639,3.0626,3.0623,3.0599,3.0592,3.058,3.0571,3.0553,3.054,3.0523,3.0511,3.0497,3.0494,3.0494,3.0501,3.0509,3.0505,3.0476,3.0494,3.0493,3.0493,3.0493,3.0493,3.071,3.0707,3.0691,3.068,3.0669,3.0658,3.0653,3.0638,3.0628,3.0613,3.06,3.0589,3.0572,3.0549,3.0538,3.0528,3.0522,3.0522,3.0522,3.0523,3.0525,3.051,3.0525,3.0525,3.0525,3.0524,3.0524,0,3.0733,3.0721,3.0712,3.0696,3.0687,3.0675,3.0661,3.0654,3.0645,3.0631,3.062,3.0606,3.0593,3.0574,3.0559,3.0555,3.0548,3.0552,3.0553,3.055,3.0532,3.0533,3.0558,3.0558,3.0558,3.0558,3.0558,3.0558,3.0744,3.0738,3.0728,3.0716,3.0704,3.0694,3.0687,3.0676,3.0665,3.065,3.064,3.0628,3.0611,3.0595,3.0582,3.0577,3.0573,3.0579,3.0571,3.0554,3.0551,3.0548,3.055,3.0578,3.0578,3.059,3.0591,3.0591]}]]